Showing default

OPS 6582 (TRANSIT 5B-5), 965

Orbit data source: Space-Track

OPS 6582 (TRANSIT 5B-5), 965 is a payload satellite owned by USN BuWeps (US) in LEO that was launched on Sun, 13 Dec 1964 UTC via a THOR ABLESTAR launch vehicle from the Air Force Western Test Range (AFWTR). Payloads include a variety of satellites, spacecraft, and rockets equipped with specific instruments for various scientific and technological missions. These include communications satellites like Starlink; space stations such as the ISS; scientific satellites like the Hubble; Earth observation satellites from companies like Planet Labs, Umbra, and HawkEye 360; GPS; miniature CubeSats for education and research; and military/defense satellites.

Loading next visibility...
OPS 6582 (TRANSIT 5B-5) details
Identifier
965, 1964-083D
Orbit
LEO
Last TLE update10 hours ago
Origin
Flag of USUSN BuWeps (US)
ManufacturerNAFI
MissionDefense Navigation
Bus & MotorTRANSIT 5, Unknown motor
Mass~54 kg wet, ~54 kg dry
Launch date (UTC)
1964-12-13 (60 years ago)
Launch vehicle
THOR ABLESTAR
Launch site
Air Force Western Test Range (AFWTR)
Object type
Payload
Rocket body
Debris
Shape & HBROct Cyl + 4 Pan + 1 Rod, Unknown HBR
Radar Cross Section7.565 m², Medium (>0.1 m² and < 1m²)

Expand to show TLE details & history

TLE from 10 hours ago
0 OPS 6582 (TRANSIT 5B-5)
1 00965U 64083D   25024.52853292  .00000135  00000-0  17597-3 0  9991
2 00965  90.0517 199.4797 0040297 327.7045  94.6769 13.56941106974625
Epoch: 2025-01-24T12:41Z
Definitive object data (Epoch: 2025-01-24T12:41:05.244Z)
Latitude62.92722°
Longitude-114.98318°
Altitude1,060.287 km
Speed7.326 km/s
True Right ascension13h 17m 30s
True Declination62° 47' 36"
Sunlit
Object was in daylight at TLE epoch
Visualization TLE readout
Latitude-39.52014°
Longitude-114.8379°
Altitude1,032.191 km
Speed7.349 km/s
Apparent Right ascension12h 44m 46s
Apparent Declination-39° 52' 42"
Sunlit
Object is in daylight
Visualization observer readout
Local Sidereal Time00:05:46
Azimuth267.159° W
Elevation-82.526°
Doppler factor1
Orbital elements
Apogee altitude1,073.778 km
Perigee altitude1,013.961 km
Semi-major axis7,422.006 km
Eccentricity0.0040297
Inclination90.0517°
RAAN199.4797°
Arg. of periapsis327.7045°
True anomaly95.13694°
Mean anomaly94.6769°
Eccentric anomaly94.90694°
Mean motion3.39439 °/min
BSTAR0.00017597
Orbital period106.06 mins
Loading maneuver chart data...

OPS 6582 (TRANSIT 5B-5) Visibility forecast

Observer location: undefined°, undefined

Span
Click to sort rows by Start time (UTC) header in descending order
Start Az.
Max El. time (UTC)
Max El. Az.
Max El.
End time (UTC)
End Az.
12 mins2025-01-24 23:35:13.685Z9.321° NNE2025-01-24 23:41:13.685Z95.202° ESE42.31°2025-01-24 23:47:13.685Z171.298° S
7 mins2025-01-25 01:23:13.685Z321.081° NNW2025-01-25 01:26:13.685Z289.523° WNW19.02°2025-01-25 01:30:13.685Z248.684° W
10 mins2025-01-25 11:30:13.685Z156.914° SSE2025-01-25 11:35:13.685Z66.817° ENE40.715°2025-01-25 11:40:13.685Z7.149° NNE
7 mins2025-01-25 13:18:13.685Z247.003° WSW2025-01-25 13:21:13.685Z280.605° WNW19.288°2025-01-25 13:25:13.685Z322.294° NNW
9 mins2025-01-25 22:37:13.685Z36.236° NE2025-01-25 22:41:13.685Z80.181° E22.547°2025-01-25 22:46:13.685Z131.766° SE
|